contact:dominique.lefevre@mio.osupytheas.fr, maurice.libes@osupytheas.fr, didier.mallarino@osupytheas.fr
Project:EMSO http://www.emso-fr.org/EMSO-France
Depth: 2436.0 m
Title:EMSO Ligure Ouest : Data MII capteur MICROCAT
DateTime_Computer,Latitude,Longitude,Temperature,Conductivity,Pressure,DateTime_Instrument
DateTime_Computer,Latitude,Longitude,degC,S m-1,dbar,DateTime_Instrument
2020-06-13T00:01:31Z,42.805,6.029,13.2983,4.60003,2470.217,2020-6-13T02:02:15Z
2020-06-13T00:04:34Z,42.805,6.029,13.2981,4.59994,2470.203,2020-6-13T02:05:18Z
2020-06-13T00:07:37Z,42.805,6.029,13.2974,4.59986,2470.217,2020-6-13T02:08:22Z
2020-06-13T00:10:41Z,42.805,6.029,13.2978,4.59985,2470.203,2020-6-13T02:11:25Z
2020-06-13T00:13:44Z,42.805,6.029,13.2976,4.59990,2470.217,2020-6-13T02:14:28Z
2020-06-13T00:16:47Z,42.805,6.029,13.2983,4.59992,2470.227,2020-6-13T02:17:31Z
2020-06-13T00:19:50Z,42.805,6.029,13.2979,4.59989,2470.24,2020-6-13T02:20:34Z
2020-06-13T00:22:53Z,42.805,6.029,13.2975,4.59985,2470.227,2020-6-13T02:23:38Z
2020-06-13T00:25:57Z,42.805,6.029,13.2976,4.59990,2470.217,2020-6-13T02:26:41Z
2020-06-13T00:29:00Z,42.805,6.029,13.2976,4.59987,2470.217,2020-6-13T02:29:44Z
2020-06-13T00:32:03Z,42.805,6.029,13.2973,4.59980,2470.227,2020-6-13T02:32:47Z
2020-06-13T00:35:06Z,42.805,6.029,13.2973,4.59981,2470.227,2020-6-13T02:35:51Z
2020-06-13T00:38:10Z,42.805,6.029,13.2974,4.59984,2470.227,2020-6-13T02:38:54Z
2020-06-13T00:41:13Z,42.805,6.029,13.2974,4.59985,2470.25,2020-6-13T02:41:57Z
2020-06-13T00:44:16Z,42.805,6.029,13.2971,4.59986,2470.227,2020-6-13T02:45:00Z
2020-06-13T00:47:19Z,42.805,6.029,13.2977,4.59988,2470.227,2020-6-13T02:48:03Z
2020-06-13T00:50:22Z,42.805,6.029,13.2981,4.59996,2470.227,2020-6-13T02:51:07Z
2020-06-13T00:53:26Z,42.805,6.029,13.2978,4.59991,2470.217,2020-6-13T02:54:10Z
2020-06-13T00:56:29Z,42.805,6.029,13.2978,4.59991,2470.203,2020-6-13T02:57:13Z
2020-06-13T00:59:32Z,42.805,6.029,13.2980,4.59985,2470.25,2020-6-13T03:00:16Z
2020-06-13T01:02:36Z,42.805,6.029,13.2979,4.59984,2470.227,2020-6-13T03:03:20Z
2020-06-13T01:05:39Z,42.805,6.029,13.2985,4.59996,2470.227,2020-6-13T03:06:23Z
2020-06-13T01:08:42Z,42.805,6.029,13.2977,4.59988,2470.264,2020-6-13T03:09:26Z
2020-06-13T01:11:45Z,42.805,6.029,13.2974,4.59986,2470.227,2020-6-13T03:12:30Z
2020-06-13T01:14:49Z,42.805,6.029,13.2976,4.59982,2470.25,2020-6-13T03:15:33Z
2020-06-13T01:17:52Z,42.805,6.029,13.2978,4.59984,2470.203,2020-6-13T03:18:36Z
2020-06-13T01:20:55Z,42.805,6.029,13.2976,4.59984,2470.264,2020-6-13T03:21:39Z
2020-06-13T01:23:58Z,42.805,6.029,13.2986,4.59997,2470.227,2020-6-13T03:24:43Z
2020-06-13T01:27:02Z,42.805,6.029,13.2973,4.59986,2470.203,2020-6-13T03:27:46Z
2020-06-13T01:30:05Z,42.805,6.029,13.2982,4.59994,2470.25,2020-6-13T03:30:49Z
2020-06-13T01:33:08Z,42.805,6.029,13.2975,4.59987,2470.227,2020-6-13T03:33:52Z
2020-06-13T01:36:11Z,42.805,6.029,13.2978,4.59983,2470.203,2020-6-13T03:36:56Z
2020-06-13T01:39:15Z,42.805,6.029,13.2976,4.59983,2470.25,2020-6-13T03:39:59Z
2020-06-13T01:42:18Z,42.805,6.029,13.2982,4.59986,2470.217,2020-6-13T03:43:02Z
2020-06-13T01:45:21Z,42.805,6.029,13.2974,4.59986,2470.227,2020-6-13T03:46:05Z
2020-06-13T01:48:24Z,42.805,6.029,13.2978,4.59988,2470.227,2020-6-13T03:49:09Z
2020-06-13T01:51:28Z,42.805,6.029,13.2979,4.59988,2470.203,2020-6-13T03:52:12Z
2020-06-13T01:54:31Z,42.805,6.029,13.2977,4.59991,2470.24,2020-6-13T03:55:15Z
2020-06-13T01:57:34Z,42.805,6.029,13.2980,4.59987,2470.24,2020-6-13T03:58:19Z
2020-06-13T02:00:38Z,42.805,6.029,13.2974,4.59987,2470.217,2020-6-13T04:01:22Z
2020-06-13T02:03:41Z,42.805,6.029,13.2983,4.59985,2470.203,2020-6-13T04:04:25Z
2020-06-13T02:06:44Z,42.805,6.029,13.2981,4.59983,2470.264,2020-6-13T04:07:28Z
2020-06-13T02:09:47Z,42.805,6.029,13.2978,4.59987,2470.24,2020-6-13T04:10:32Z
2020-06-13T02:12:51Z,42.805,6.029,13.2983,4.60005,2470.203,2020-6-13T04:13:35Z
2020-06-13T02:15:54Z,42.805,6.029,13.2979,4.59990,2470.227,2020-6-13T04:16:38Z
2020-06-13T02:18:57Z,42.805,6.029,13.2975,4.59985,2470.227,2020-6-13T04:19:41Z
2020-06-13T02:22:00Z,42.805,6.029,13.2975,4.59984,2470.203,2020-6-13T04:22:45Z
2020-06-13T02:25:04Z,42.805,6.029,13.2972,4.59985,2470.203,2020-6-13T04:25:48Z
2020-06-13T02:28:07Z,42.805,6.029,13.2976,4.59984,2470.194,2020-6-13T04:28:51Z
2020-06-13T02:31:10Z,42.805,6.029,13.2983,4.59990,2470.217,2020-6-13T04:31:54Z
2020-06-13T02:34:13Z,42.805,6.029,13.2983,4.60008,2470.227,2020-6-13T04:34:57Z
2020-06-13T02:37:16Z,42.805,6.029,13.2981,4.59990,2470.217,2020-6-13T04:38:01Z
2020-06-13T02:40:20Z,42.805,6.029,13.2981,4.59988,2470.203,2020-6-13T04:41:04Z
2020-06-13T02:43:23Z,42.805,6.029,13.2980,4.59986,2470.227,2020-6-13T04:44:08Z
2020-06-13T02:46:27Z,42.805,6.029,13.2983,4.59996,2470.217,2020-6-13T04:47:11Z
2020-06-13T02:49:30Z,42.805,6.029,13.2976,4.59989,2470.203,2020-6-13T04:50:14Z
2020-06-13T02:52:33Z,42.805,6.029,13.2982,4.59996,2470.24,2020-6-13T04:53:17Z
2020-06-13T02:55:37Z,42.805,6.029,13.2977,4.59991,2470.203,2020-6-13T04:56:21Z
2020-06-13T02:58:40Z,42.805,6.029,13.2983,4.59999,2470.18,2020-6-13T04:59:24Z
2020-06-13T03:01:43Z,42.805,6.029,13.2977,4.59989,2470.203,2020-6-13T05:02:27Z
2020-06-13T03:04:46Z,42.805,6.029,13.2975,4.59986,2470.217,2020-6-13T05:05:31Z
2020-06-13T03:07:50Z,42.805,6.029,13.2978,4.59993,2470.203,2020-6-13T05:08:34Z
2020-06-13T03:10:53Z,42.805,6.029,13.2976,4.59998,2470.203,2020-6-13T05:11:37Z
2020-06-13T03:13:56Z,42.805,6.029,13.2980,4.59999,2470.217,2020-6-13T05:14:40Z
2020-06-13T03:16:59Z,42.805,6.029,13.2976,4.59990,2470.203,2020-6-13T05:17:43Z
2020-06-13T03:20:02Z,42.805,6.029,13.2981,4.59986,2470.203,2020-6-13T05:20:47Z
2020-06-13T03:23:06Z,42.805,6.029,13.2973,4.59985,2470.203,2020-6-13T05:23:50Z
2020-06-13T03:26:09Z,42.805,6.029,13.2981,4.59987,2470.203,2020-6-13T05:26:53Z
2020-06-13T03:29:12Z,42.805,6.029,13.2990,4.59993,2470.171,2020-6-13T05:29:56Z
2020-06-13T03:32:15Z,42.805,6.029,13.2976,4.59996,2470.194,2020-6-13T05:33:00Z
2020-06-13T03:35:19Z,42.805,6.029,13.2981,4.59999,2470.217,2020-6-13T05:36:03Z
2020-06-13T03:38:22Z,42.805,6.029,13.2979,4.60010,2470.217,2020-6-13T05:39:06Z
2020-06-13T03:41:25Z,42.805,6.029,13.2974,4.59992,2470.18,2020-6-13T05:42:09Z
2020-06-13T03:44:28Z,42.805,6.029,13.2983,4.60006,2470.194,2020-6-13T05:45:12Z
2020-06-13T03:47:32Z,42.805,6.029,13.2983,4.60003,2470.194,2020-6-13T05:48:16Z
2020-06-13T03:50:35Z,42.805,6.029,13.2988,4.60009,2470.156,2020-6-13T05:51:19Z
2020-06-13T03:53:38Z,42.805,6.029,13.2979,4.60009,2470.18,2020-6-13T05:54:22Z
2020-06-13T03:56:41Z,42.805,6.029,13.2979,4.59986,2470.217,2020-6-13T05:57:26Z
2020-06-13T03:59:45Z,42.805,6.029,13.2979,4.59996,2470.194,2020-6-13T06:00:29Z
2020-06-13T04:02:48Z,42.805,6.029,13.2985,4.59996,2470.194,2020-6-13T06:03:32Z
2020-06-13T04:05:51Z,42.805,6.029,13.2983,4.60003,2470.217,2020-6-13T06:06:36Z
2020-06-13T04:08:55Z,42.805,6.029,13.2977,4.59997,2470.171,2020-6-13T06:09:39Z
2020-06-13T04:11:58Z,42.805,6.029,13.2982,4.59992,2470.194,2020-6-13T06:12:42Z
2020-06-13T04:15:01Z,42.805,6.029,13.2977,4.59986,2470.194,2020-6-13T06:15:45Z
2020-06-13T04:18:04Z,42.805,6.029,13.2982,4.60011,2470.156,2020-6-13T06:18:49Z
2020-06-13T04:21:08Z,42.805,6.029,13.2973,4.59988,2470.156,2020-6-13T06:21:52Z
2020-06-13T04:24:11Z,42.805,6.029,13.2982,4.59989,2470.194,2020-6-13T06:24:55Z
2020-06-13T04:27:14Z,42.805,6.029,13.3004,4.60007,2470.156,2020-6-13T06:27:58Z
2020-06-13T04:30:17Z,42.805,6.029,13.2985,4.60014,2470.203,2020-6-13T06:31:02Z
2020-06-13T04:33:21Z,42.805,6.029,13.2976,4.60005,2470.156,2020-6-13T06:34:05Z
2020-06-13T04:36:24Z,42.805,6.029,13.2979,4.59989,2470.18,2020-6-13T06:37:08Z
2020-06-13T04:39:27Z,42.805,6.029,13.2990,4.60003,2470.217,2020-6-13T06:40:11Z
2020-06-13T04:42:30Z,42.805,6.029,13.2985,4.60002,2470.194,2020-6-13T06:43:14Z
2020-06-13T04:45:34Z,42.805,6.029,13.2982,4.60011,2470.147,2020-6-13T06:46:18Z
2020-06-13T04:48:37Z,42.805,6.029,13.2979,4.60004,2470.18,2020-6-13T06:49:21Z
2020-06-13T04:51:40Z,42.805,6.029,13.2982,4.60019,2470.171,2020-6-13T06:52:24Z
2020-06-13T04:54:43Z,42.805,6.029,13.2989,4.60000,2470.156,2020-6-13T06:55:27Z
2020-06-13T04:57:47Z,42.805,6.029,13.2978,4.59991,2470.18,2020-6-13T06:58:31Z
2020-06-13T05:00:50Z,42.805,6.029,13.2984,4.59997,2470.203,2020-6-13T07:01:34Z
2020-06-13T05:03:53Z,42.805,6.029,13.2988,4.60011,2470.194,2020-6-13T07:04:37Z
2020-06-13T05:06:56Z,42.805,6.029,13.2979,4.59995,2470.18,2020-6-13T07:07:40Z
2020-06-13T05:09:59Z,42.805,6.029,13.2976,4.59986,2470.171,2020-6-13T07:10:44Z
2020-06-13T05:13:03Z,42.805,6.029,13.2987,4.60014,2470.171,2020-6-13T07:13:47Z
2020-06-13T05:16:06Z,42.805,6.029,13.2993,4.59999,2470.194,2020-6-13T07:16:50Z
2020-06-13T05:19:09Z,42.805,6.029,13.2991,4.60011,2470.18,2020-6-13T07:19:53Z
2020-06-13T05:22:12Z,42.805,6.029,13.2998,4.60024,2470.156,2020-6-13T07:22:57Z
2020-06-13T05:25:16Z,42.805,6.029,13.3004,4.60019,2470.194,2020-6-13T07:26:00Z
2020-06-13T05:28:19Z,42.805,6.029,13.2996,4.60015,2470.156,2020-6-13T07:29:03Z
2020-06-13T05:31:22Z,42.805,6.029,13.2979,4.59999,2470.171,2020-6-13T07:32:07Z
2020-06-13T05:34:26Z,42.805,6.029,13.2977,4.59993,2470.18,2020-6-13T07:35:10Z
2020-06-13T05:37:29Z,42.805,6.029,13.2979,4.60001,2470.147,2020-6-13T07:38:13Z
2020-06-13T05:40:32Z,42.805,6.029,13.2993,4.60022,2470.156,2020-6-13T07:41:16Z
2020-06-13T05:43:35Z,42.805,6.029,13.2980,4.60007,2470.171,2020-6-13T07:44:19Z
2020-06-13T05:46:39Z,42.805,6.029,13.2991,4.60005,2470.156,2020-6-13T07:47:23Z
2020-06-13T05:49:42Z,42.805,6.029,13.2987,4.60016,2470.156,2020-6-13T07:50:26Z
2020-06-13T05:52:45Z,42.805,6.029,13.2987,4.60012,2470.147,2020-6-13T07:53:29Z
2020-06-13T05:55:48Z,42.805,6.029,13.2993,4.60008,2470.133,2020-6-13T07:56:33Z
2020-06-13T05:58:52Z,42.805,6.029,13.2984,4.60022,2470.156,2020-6-13T07:59:36Z
2020-06-13T06:01:55Z,42.805,6.029,13.2993,4.60019,2470.147,2020-6-13T08:02:39Z
2020-06-13T06:04:58Z,42.805,6.029,13.2989,4.60003,2470.156,2020-6-13T08:05:42Z
2020-06-13T06:08:01Z,42.805,6.029,13.2990,4.60011,2470.147,2020-6-13T08:08:46Z
2020-06-13T06:11:05Z,42.805,6.029,13.2990,4.60011,2470.171,2020-6-13T08:11:49Z
2020-06-13T06:14:08Z,42.805,6.029,13.2996,4.60013,2470.133,2020-6-13T08:14:52Z
2020-06-13T06:17:11Z,42.805,6.029,13.3007,4.60020,2470.147,2020-6-13T08:17:56Z
2020-06-13T06:20:15Z,42.805,6.029,13.2993,4.60015,2470.11,2020-6-13T08:20:59Z
2020-06-13T06:23:18Z,42.805,6.029,13.2987,4.60016,2470.11,2020-6-13T08:24:02Z
2020-06-13T06:26:21Z,42.805,6.029,13.2976,4.59992,2470.133,2020-6-13T08:27:05Z
2020-06-13T06:29:24Z,42.805,6.029,13.2982,4.60007,2470.147,2020-6-13T08:30:09Z
2020-06-13T06:32:28Z,42.805,6.029,13.2990,4.60007,2470.133,2020-6-13T08:33:12Z
2020-06-13T06:35:31Z,42.805,6.029,13.2996,4.60017,2470.124,2020-6-13T08:36:15Z
2020-06-13T06:38:34Z,42.805,6.029,13.2987,4.60012,2470.063,2020-6-13T08:39:18Z
2020-06-13T06:41:37Z,42.805,6.029,13.2993,4.60014,2470.133,2020-6-13T08:42:22Z
2020-06-13T06:44:41Z,42.805,6.029,13.2982,4.60021,2470.124,2020-6-13T08:45:25Z
2020-06-13T06:47:44Z,42.805,6.029,13.2990,4.60025,2470.147,2020-6-13T08:48:28Z
2020-06-13T06:50:47Z,42.805,6.029,13.3006,4.60036,2470.11,2020-6-13T08:51:31Z
2020-06-13T06:53:50Z,42.805,6.029,13.3004,4.60013,2470.11,2020-6-13T08:54:35Z
2020-06-13T06:56:54Z,42.805,6.029,13.2985,4.60021,2470.133,2020-6-13T08:57:38Z
2020-06-13T06:59:57Z,42.805,6.029,13.2980,4.60016,2470.087,2020-6-13T09:00:41Z
2020-06-13T07:03:00Z,42.805,6.029,13.2976,4.60000,2470.11,2020-6-13T09:03:44Z
2020-06-13T07:06:03Z,42.805,6.029,13.2983,4.60016,2470.133,2020-6-13T09:06:48Z
2020-06-13T07:09:07Z,42.805,6.029,13.2993,4.60019,2470.11,2020-6-13T09:09:51Z
2020-06-13T07:12:10Z,42.805,6.029,13.2979,4.59996,2470.133,2020-6-13T09:12:54Z
2020-06-13T07:15:13Z,42.805,6.029,13.2983,4.59996,2470.087,2020-6-13T09:15:57Z
2020-06-13T07:18:16Z,42.805,6.029,13.2976,4.59996,2470.124,2020-6-13T09:19:01Z
2020-06-13T07:21:20Z,42.805,6.029,13.2991,4.60002,2470.124,2020-6-13T09:22:04Z
2020-06-13T07:24:23Z,42.805,6.029,13.3000,4.60025,2470.124,2020-6-13T09:25:07Z
2020-06-13T07:27:26Z,42.805,6.029,13.2999,4.60026,2470.1,2020-6-13T09:28:10Z
2020-06-13T07:30:29Z,42.805,6.029,13.2986,4.60014,2470.1,2020-6-13T09:31:14Z
2020-06-13T07:33:32Z,42.805,6.029,13.2998,4.60016,2470.133,2020-6-13T09:34:17Z
2020-06-13T07:36:36Z,42.805,6.029,13.2985,4.60003,2470.11,2020-6-13T09:37:20Z
2020-06-13T07:39:39Z,42.805,6.029,13.2979,4.59997,2470.124,2020-6-13T09:40:23Z
2020-06-13T07:42:42Z,42.805,6.029,13.2991,4.60026,2470.133,2020-6-13T09:43:26Z
2020-06-13T07:45:45Z,42.805,6.029,13.2996,4.60033,2470.11,2020-6-13T09:46:30Z
2020-06-13T07:48:49Z,42.805,6.029,13.3000,4.60042,2470.087,2020-6-13T09:49:33Z
2020-06-13T07:51:52Z,42.805,6.029,13.2998,4.60014,2470.124,2020-6-13T09:52:36Z
2020-06-13T07:54:55Z,42.805,6.029,13.2992,4.60036,2470.11,2020-6-13T09:55:40Z
2020-06-13T07:57:59Z,42.805,6.029,13.2979,4.60008,2470.124,2020-6-13T09:58:43Z
2020-06-13T08:01:02Z,42.805,6.029,13.2983,4.60018,2470.087,2020-6-13T10:01:46Z
2020-06-13T08:04:05Z,42.805,6.029,13.2994,4.60014,2470.087,2020-6-13T10:04:49Z
2020-06-13T08:07:08Z,42.805,6.029,13.2992,4.60001,2470.1,2020-6-13T10:07:53Z
2020-06-13T08:10:12Z,42.805,6.029,13.2990,4.60017,2470.124,2020-6-13T10:10:56Z
2020-06-13T08:13:15Z,42.805,6.029,13.2993,4.60029,2470.04,2020-6-13T10:13:59Z
2020-06-13T08:16:18Z,42.805,6.029,13.2981,4.60009,2470.063,2020-6-13T10:17:02Z
2020-06-13T08:19:21Z,42.805,6.029,13.2977,4.60008,2470.1,2020-6-13T10:20:05Z
2020-06-13T08:22:24Z,42.805,6.029,13.2998,4.60027,2470.087,2020-6-13T10:23:09Z
2020-06-13T08:25:28Z,42.805,6.029,13.2985,4.60018,2470.087,2020-6-13T10:26:12Z
2020-06-13T08:28:31Z,42.805,6.029,13.2992,4.60015,2470.087,2020-6-13T10:29:15Z
2020-06-13T08:31:34Z,42.805,6.029,13.2999,4.60029,2470.133,2020-6-13T10:32:18Z
2020-06-13T08:34:37Z,42.805,6.029,13.2994,4.60021,2470.087,2020-6-13T10:35:22Z
2020-06-13T08:37:41Z,42.805,6.029,13.2986,4.60004,2470.124,2020-6-13T10:38:25Z
2020-06-13T08:40:44Z,42.805,6.029,13.2990,4.59994,2470.11,2020-6-13T10:41:28Z
2020-06-13T08:43:47Z,42.805,6.029,13.2981,4.59994,2470.063,2020-6-13T10:44:31Z
2020-06-13T08:46:50Z,42.805,6.029,13.2979,4.59996,2470.087,2020-6-13T10:47:35Z
2020-06-13T08:49:54Z,42.805,6.029,13.2990,4.59998,2470.087,2020-6-13T10:50:38Z
2020-06-13T08:52:57Z,42.805,6.029,13.2984,4.59999,2470.147,2020-6-13T10:53:41Z
2020-06-13T08:56:00Z,42.805,6.029,13.2974,4.59989,2470.124,2020-6-13T10:56:44Z
2020-06-13T08:59:03Z,42.805,6.029,13.2987,4.60017,2470.063,2020-6-13T10:59:48Z
2020-06-13T09:02:07Z,42.805,6.029,13.2993,4.60013,2470.087,2020-6-13T11:02:51Z
2020-06-13T09:05:10Z,42.805,6.029,13.2992,4.60024,2470.087,2020-6-13T11:05:54Z
2020-06-13T09:08:13Z,42.805,6.029,13.2999,4.60021,2470.087,2020-6-13T11:08:57Z
2020-06-13T09:11:16Z,42.805,6.029,13.2993,4.60026,2470.063,2020-6-13T11:12:01Z
2020-06-13T09:14:20Z,42.805,6.029,13.2992,4.60000,2470.087,2020-6-13T11:15:04Z
2020-06-13T09:17:23Z,42.805,6.029,13.2986,4.60019,2470.063,2020-6-13T11:18:07Z
2020-06-13T09:20:26Z,42.805,6.029,13.2979,4.60009,2470.1,2020-6-13T11:21:10Z
2020-06-13T09:23:29Z,42.805,6.029,13.2979,4.59998,2470.133,2020-6-13T11:24:14Z
2020-06-13T09:26:33Z,42.805,6.029,13.2980,4.59999,2470.11,2020-6-13T11:27:17Z
2020-06-13T09:29:36Z,42.805,6.029,13.2992,4.60020,2470.11,2020-6-13T11:30:20Z
2020-06-13T09:32:39Z,42.805,6.029,13.2995,4.60035,2470.087,2020-6-13T11:33:23Z
2020-06-13T09:35:42Z,42.805,6.029,13.2987,4.60026,2470.087,2020-6-13T11:36:27Z
2020-06-13T09:38:46Z,42.805,6.029,13.2986,4.60021,2470.077,2020-6-13T11:39:30Z
2020-06-13T09:41:49Z,42.805,6.029,13.2989,4.60014,2470.11,2020-6-13T11:42:33Z
2020-06-13T09:44:52Z,42.805,6.029,13.2979,4.59991,2470.087,2020-6-13T11:45:36Z
2020-06-13T09:47:55Z,42.805,6.029,13.2985,4.60005,2470.11,2020-6-13T11:48:40Z
2020-06-13T09:50:59Z,42.805,6.029,13.2986,4.60003,2470.1,2020-6-13T11:51:43Z
2020-06-13T09:54:02Z,42.805,6.029,13.2997,4.60031,2470.11,2020-6-13T11:54:46Z
2020-06-13T09:57:05Z,42.805,6.029,13.2983,4.60019,2470.124,2020-6-13T11:57:49Z
2020-06-13T10:00:08Z,42.805,6.029,13.2990,4.60024,2470.077,2020-6-13T12:00:52Z
2020-06-13T10:03:12Z,42.805,6.029,13.2993,4.60019,2470.077,2020-6-13T12:03:56Z
2020-06-13T10:06:15Z,42.805,6.029,13.2996,4.60028,2470.1,2020-6-13T12:06:59Z
2020-06-13T10:09:18Z,42.805,6.029,13.2984,4.60013,2470.087,2020-6-13T12:10:02Z
2020-06-13T10:12:21Z,42.805,6.029,13.2981,4.60001,2470.124,2020-6-13T12:13:06Z
2020-06-13T10:15:25Z,42.805,6.029,13.2978,4.59996,2470.133,2020-6-13T12:16:09Z
2020-06-13T10:18:28Z,42.805,6.029,13.2974,4.59992,2470.147,2020-6-13T12:19:12Z
2020-06-13T10:21:31Z,42.805,6.029,13.2990,4.60009,2470.11,2020-6-13T12:22:15Z
2020-06-13T10:24:34Z,42.805,6.029,13.2996,4.60015,2470.087,2020-6-13T12:25:19Z
2020-06-13T10:27:38Z,42.805,6.029,13.2984,4.60004,2470.124,2020-6-13T12:28:22Z
2020-06-13T10:30:41Z,42.805,6.029,13.2988,4.60014,2470.11,2020-6-13T12:31:25Z
2020-06-13T10:33:44Z,42.805,6.029,13.2996,4.60026,2470.124,2020-6-13T12:34:28Z
2020-06-13T10:36:47Z,42.805,6.029,13.2982,4.60020,2470.11,2020-6-13T12:37:32Z
2020-06-13T10:39:51Z,42.805,6.029,13.2993,4.60010,2470.147,2020-6-13T12:40:35Z
2020-06-13T10:42:54Z,42.805,6.029,13.2976,4.59997,2470.147,2020-6-13T12:43:38Z
2020-06-13T10:45:57Z,42.805,6.029,13.2981,4.59992,2470.11,2020-6-13T12:46:41Z
2020-06-13T10:49:00Z,42.805,6.029,13.2986,4.60002,2470.11,2020-6-13T12:49:45Z
2020-06-13T10:52:04Z,42.805,6.029,13.2979,4.60004,2470.087,2020-6-13T12:52:48Z
2020-06-13T10:55:07Z,42.805,6.029,13.2986,4.60001,2470.133,2020-6-13T12:55:51Z
2020-06-13T10:58:10Z,42.805,6.029,13.2983,4.60015,2470.133,2020-6-13T12:58:54Z
2020-06-13T11:01:13Z,42.805,6.029,13.2983,4.60000,2470.11,2020-6-13T13:01:58Z
2020-06-13T11:04:17Z,42.805,6.029,13.2981,4.60002,2470.124,2020-6-13T13:05:01Z
2020-06-13T11:07:20Z,42.805,6.029,13.2998,4.60028,2470.133,2020-6-13T13:08:04Z
2020-06-13T11:10:23Z,42.805,6.029,13.2998,4.60019,2470.124,2020-6-13T13:11:07Z
2020-06-13T11:13:26Z,42.805,6.029,13.2991,4.60019,2470.087,2020-6-13T13:14:11Z
2020-06-13T11:16:30Z,42.805,6.029,13.2982,4.59997,2470.124,2020-6-13T13:17:14Z
2020-06-13T11:19:33Z,42.805,6.029,13.2986,4.59992,2470.087,2020-6-13T13:20:17Z
2020-06-13T11:22:36Z,42.805,6.029,13.2986,4.60003,2470.133,2020-6-13T13:23:20Z
2020-06-13T11:25:39Z,42.805,6.029,13.2991,4.60012,2470.11,2020-6-13T13:26:23Z
2020-06-13T11:28:42Z,42.805,6.029,13.3000,4.60010,2470.133,2020-6-13T13:29:27Z
2020-06-13T11:31:46Z,42.805,6.029,13.3004,4.60010,2470.124,2020-6-13T13:32:30Z
2020-06-13T11:34:49Z,42.805,6.029,13.2999,4.60027,2470.11,2020-6-13T13:35:33Z
2020-06-13T11:37:52Z,42.805,6.029,13.2985,4.60021,2470.11,2020-6-13T13:38:36Z
2020-06-13T11:40:56Z,42.805,6.029,13.2995,4.60035,2470.147,2020-6-13T13:41:40Z
2020-06-13T11:43:59Z,42.805,6.029,13.2995,4.60027,2470.11,2020-6-13T13:44:43Z
2020-06-13T11:47:02Z,42.805,6.029,13.2998,4.60014,2470.124,2020-6-13T13:47:46Z
2020-06-13T11:50:05Z,42.805,6.029,13.2982,4.59997,2470.124,2020-6-13T13:50:50Z
2020-06-13T11:53:09Z,42.805,6.029,13.2995,4.60013,2470.133,2020-6-13T13:53:53Z
2020-06-13T11:56:12Z,42.805,6.029,13.3003,4.60004,2470.124,2020-6-13T13:56:56Z
2020-06-13T11:59:15Z,42.805,6.029,13.2999,4.60022,2470.133,2020-6-13T13:59:59Z
2020-06-13T12:02:18Z,42.805,6.029,13.2996,4.60026,2470.156,2020-6-13T14:03:03Z
2020-06-13T12:05:22Z,42.805,6.029,13.3001,4.60014,2470.124,2020-6-13T14:06:06Z
2020-06-13T12:08:25Z,42.805,6.029,13.2990,4.60019,2470.147,2020-6-13T14:09:09Z
2020-06-13T12:11:28Z,42.805,6.029,13.2991,4.60016,2470.124,2020-6-13T14:12:12Z
2020-06-13T12:14:31Z,42.805,6.029,13.3000,4.60014,2470.147,2020-6-13T14:15:16Z
2020-06-13T12:17:35Z,42.805,6.029,13.2989,4.60029,2470.11,2020-6-13T14:18:19Z
2020-06-13T12:20:38Z,42.805,6.029,13.2989,4.60018,2470.133,2020-6-13T14:21:22Z
2020-06-13T12:23:41Z,42.805,6.029,13.2989,4.60023,2470.124,2020-6-13T14:24:25Z
2020-06-13T12:26:44Z,42.805,6.029,13.2990,4.59991,2470.087,2020-6-13T14:27:29Z
2020-06-13T12:29:48Z,42.805,6.029,13.2993,4.60019,2470.156,2020-6-13T14:30:32Z
2020-06-13T12:32:51Z,42.805,6.029,13.2993,4.60013,2470.124,2020-6-13T14:33:35Z
2020-06-13T12:35:54Z,42.805,6.029,13.2991,4.60014,2470.124,2020-6-13T14:36:38Z
2020-06-13T12:38:57Z,42.805,6.029,13.2997,4.60021,2470.133,2020-6-13T14:39:42Z
2020-06-13T12:42:01Z,42.805,6.029,13.2993,4.60014,2470.087,2020-6-13T14:42:45Z
2020-06-13T12:45:04Z,42.805,6.029,13.2988,4.60009,2470.11,2020-6-13T14:45:48Z
2020-06-13T12:48:07Z,42.805,6.029,13.2987,4.60011,2470.171,2020-6-13T14:48:51Z
2020-06-13T12:51:10Z,42.805,6.029,13.2990,4.60021,2470.11,2020-6-13T14:51:55Z
2020-06-13T12:54:14Z,42.805,6.029,13.2981,4.60001,2470.087,2020-6-13T14:54:58Z
2020-06-13T12:57:17Z,42.805,6.029,13.2981,4.59985,2470.133,2020-6-13T14:58:01Z
2020-06-13T13:00:20Z,42.805,6.029,13.2975,4.59989,2470.133,2020-6-13T15:01:04Z
2020-06-13T13:03:23Z,42.805,6.029,13.2986,4.59997,2470.133,2020-6-13T15:04:07Z
2020-06-13T13:06:27Z,42.805,6.029,13.2976,4.59988,2470.1,2020-6-13T15:07:11Z
2020-06-13T13:09:30Z,42.805,6.029,13.2979,4.59989,2470.124,2020-6-13T15:10:14Z
2020-06-13T13:12:33Z,42.805,6.029,13.2983,4.59988,2470.156,2020-6-13T15:13:17Z
2020-06-13T13:15:36Z,42.805,6.029,13.2976,4.59991,2470.147,2020-6-13T15:16:20Z
2020-06-13T13:18:39Z,42.805,6.029,13.2979,4.59989,2470.133,2020-6-13T15:19:24Z
2020-06-13T13:21:43Z,42.805,6.029,13.2978,4.59991,2470.133,2020-6-13T15:22:27Z
2020-06-13T13:24:46Z,42.805,6.029,13.2991,4.60002,2470.124,2020-6-13T15:25:30Z
2020-06-13T13:27:49Z,42.805,6.029,13.2996,4.60015,2470.147,2020-6-13T15:28:34Z
2020-06-13T13:30:53Z,42.805,6.029,13.2988,4.60024,2470.133,2020-6-13T15:31:37Z
2020-06-13T13:33:56Z,42.805,6.029,13.2982,4.60026,2470.156,2020-6-13T15:34:40Z
2020-06-13T13:36:59Z,42.805,6.029,13.2989,4.60009,2470.147,2020-6-13T15:37:43Z
2020-06-13T13:40:02Z,42.805,6.029,13.2996,4.60019,2470.11,2020-6-13T15:40:47Z
2020-06-13T13:43:06Z,42.805,6.029,13.2983,4.60013,2470.087,2020-6-13T15:43:50Z
2020-06-13T13:46:09Z,42.805,6.029,13.2982,4.60008,2470.124,2020-6-13T15:46:53Z
2020-06-13T13:49:12Z,42.805,6.029,13.2984,4.60011,2470.124,2020-6-13T15:49:56Z
2020-06-13T13:52:15Z,42.805,6.029,13.2990,4.60015,2470.147,2020-6-13T15:53:00Z
2020-06-13T13:55:19Z,42.805,6.029,13.2994,4.60019,2470.124,2020-6-13T15:56:03Z
2020-06-13T13:58:22Z,42.805,6.029,13.2988,4.60022,2470.147,2020-6-13T15:59:06Z
2020-06-13T14:01:25Z,42.805,6.029,13.2979,4.60012,2470.171,2020-6-13T16:02:09Z
2020-06-13T14:04:28Z,42.805,6.029,13.2981,4.60020,2470.133,2020-6-13T16:05:13Z
2020-06-13T14:07:32Z,42.805,6.029,13.2991,4.60011,2470.124,2020-6-13T16:08:16Z
2020-06-13T14:10:35Z,42.805,6.029,13.2990,4.60010,2470.147,2020-6-13T16:11:19Z
2020-06-13T14:13:38Z,42.805,6.029,13.2990,4.60025,2470.133,2020-6-13T16:14:22Z
2020-06-13T14:16:41Z,42.805,6.029,13.2998,4.60000,2470.133,2020-6-13T16:17:25Z
2020-06-13T14:19:45Z,42.805,6.029,13.2994,4.60012,2470.11,2020-6-13T16:20:29Z
2020-06-13T14:22:48Z,42.805,6.029,13.3004,4.60023,2470.11,2020-6-13T16:23:32Z
2020-06-13T14:25:51Z,42.805,6.029,13.2993,4.60016,2470.133,2020-6-13T16:26:35Z
2020-06-13T14:28:54Z,42.805,6.029,13.2997,4.60019,2470.147,2020-6-13T16:29:38Z
2020-06-13T14:31:58Z,42.805,6.029,13.2983,4.60018,2470.133,2020-6-13T16:32:42Z
2020-06-13T14:35:01Z,42.805,6.029,13.2996,4.60017,2470.133,2020-6-13T16:35:45Z
2020-06-13T14:38:04Z,42.805,6.029,13.2979,4.59992,2470.133,2020-6-13T16:38:48Z
2020-06-13T14:41:07Z,42.805,6.029,13.2976,4.59992,2470.133,2020-6-13T16:41:52Z
2020-06-13T14:44:11Z,42.805,6.029,13.2977,4.59998,2470.11,2020-6-13T16:44:55Z
2020-06-13T14:47:14Z,42.805,6.029,13.2981,4.59986,2470.133,2020-6-13T16:47:58Z
2020-06-13T14:50:17Z,42.805,6.029,13.2981,4.60001,2470.133,2020-6-13T16:51:01Z
2020-06-13T14:53:20Z,42.805,6.029,13.2994,4.60019,2470.119,2020-6-13T16:54:05Z
2020-06-13T14:56:24Z,42.805,6.029,13.2980,4.59996,2470.124,2020-6-13T16:57:08Z
2020-06-13T14:59:27Z,42.805,6.029,13.2983,4.60006,2470.133,2020-6-13T17:00:11Z
2020-06-13T15:02:30Z,42.805,6.029,13.2976,4.59992,2470.124,2020-6-13T17:03:15Z
2020-06-13T15:05:34Z,42.805,6.029,13.2977,4.59996,2470.133,2020-6-13T17:06:18Z
2020-06-13T15:08:37Z,42.805,6.029,13.2976,4.59996,2470.124,2020-6-13T17:09:21Z
2020-06-13T15:11:40Z,42.805,6.029,13.2982,4.60003,2470.11,2020-6-13T17:12:24Z